This is the latest recevied weather packets stored in our database for station/object N5MDT. If no packets are shown the sender has not sent any weather packets the latest 10 day(s).
| Time | Temp. | Humidity | Pressure | Rain* | Wind** | Luminosity | Snow |
|---|---|---|---|---|---|---|---|
| 1777736926 | 16.67° C | 81% | 1021.9 hPa | 0 mm | - | - | - |
| 1777736325 | 16.67° C | 83% | 1021.8 hPa | 0 mm | - | - | - |
| 1777735695 | 16.11° C | 84% | 1021.9 hPa | 0 mm | - | - | - |
| 1777735096 | 15.56° C | 84% | 1021.8 hPa | 0 mm | - | - | - |
| 1777734495 | 15.56° C | 84% | 1021.9 hPa | 0 mm | - | - | - |
| 1777733925 | 15° C | 85% | 1021.9 hPa | 0 mm | - | - | - |
| 1777733295 | 15° C | 86% | 1021.9 hPa | 0 mm | - | - | - |
| 1777732725 | 14.44° C | 87% | 1022.1 hPa | 0 mm | - | - | - |
| 1777732095 | 14.44° C | 87% | 1021.9 hPa | 0 mm | - | - | - |
| 1777731495 | 13.89° C | 88% | 1021.7 hPa | 0 mm | - | - | - |
| 1777730895 | 13.33° C | 88% | 1021.6 hPa | 0 mm | - | - | - |
| 1777730295 | 13.33° C | 89% | 1021.4 hPa | 0 mm | - | - | - |
| 1777729725 | 12.78° C | 89% | 1021.4 hPa | 0 mm | - | - | - |
| 1777729125 | 12.78° C | 89% | 1021.3 hPa | 0 mm | - | - | - |
| 1777728525 | 12.78° C | 89% | 1021.1 hPa | 0 mm | - | - | - |
| 1777727895 | 12.22° C | 89% | 1021 hPa | 0 mm | - | - | - |
| 1777727295 | 12.22° C | 89% | 1020.9 hPa | 0 mm | - | - | - |
| 1777726695 | 12.22° C | 89% | 1020.7 hPa | 0 mm | - | - | - |
| 1777726095 | 12.22° C | 89% | 1020.5 hPa | 0 mm | - | - | - |
| 1777725525 | 12.22° C | 89% | 1020.3 hPa | 0 mm | - | - | - |
| 1777724925 | 11.67° C | 89% | 1020.1 hPa | 0 mm | - | - | - |
| 1777724295 | 11.67° C | 89% | 1020 hPa | 0 mm | - | - | - |
| 1777723725 | 11.67° C | 89% | 1020 hPa | 0 mm | - | - | - |
| 1777723125 | 11.67° C | 89% | 1019.9 hPa | 0 mm | - | - | - |
| 1777722524 | 11.67° C | 89% | 1019.7 hPa | 0 mm | - | - | - |
* Rain latest hour (hover to see other rain measurements)
** Current wind speed in m/s (hover to see current wind gust speed)